* Astronomy

Members Login
Post Info TOPIC: Comet C/2009 U6 (LINEAR)


L

Posts: 131433
Date:
RE: Comet C/2009 U6 (LINEAR)
Permalink  
 


Comet P/2009 U6 = 1997 A2 = 2002 Q15 (LINEAR)

Orbital elements:
P/2009 U6 = 1997 A2 = 2002 Q15 (LINEAR)
Epoch 1996 Aug. 25.0 TT = JDT 2450320.5
T 1996 Sept. 4.60151 TT MPC
q 1.5710698 (2000.0) P Q
n 0.15188475 Peri. 304.22611 +0.47416414 -0.85468305
a 3.4790442 Node 116.10224 +0.86521982 +0.40789399
e 0.5484191 Incl. 13.61502 +0.16298167 +0.32115321
P 6.49

MPEC 2009 - X47


__________________


L

Posts: 131433
Date:
RE: Comet P/2009 U6 (LINEAR)
Permalink  
 


Orbital elements:
P/2009 U6 (LINEAR)
T 2009 Aug. 8.7927 TT MPC
q 1.485684 (2000.0) P Q
n 0.1575181 Peri. 308.7025 +0.4582224 -0.8576106
a 3.395593 Node 112.5051 +0.8736238 +0.3861528
e 0.562467 Incl. 14.6421 +0.1637492 +0.3396911
P 6.26
From 154 observations 2009 Oct. 19-Dec. 6.

MPEC 2009 - X25


__________________


L

Posts: 131433
Date:
RE: Comet C/2009 U6 (LINEAR)
Permalink  
 


Orbital elements:
P/2009 U6 (LINEAR)
T 2009 Aug. 8.7807 TT MPC
q 1.485461 (2000.0) P Q
n 0.1576034 Peri. 308.6876 +0.4584954 -0.8574679
a 3.394368 Node 112.5020 +0.8734963 +0.3864257
e 0.562375 Incl. 14.6410 +0.1636647 +0.3397411
P 6.25
From 142 observations 2009 Oct. 19-Nov. 28.

MPEC 2009 - W146


__________________


L

Posts: 131433
Date:
Permalink  
 

Orbital elements:
P/2009 U6 (LINEAR)
T 2009 Aug. 8.6607 TT MPC
q 1.484203 (2000.0) P Q
n 0.1584683 Peri. 308.5827 +0.4603435 -0.8564836
a 3.382007 Node 112.4843 +0.8726428 +0.3882788
e 0.561147 Incl. 14.6376 +0.1630290 +0.3401109
P 6.22
From 111 observations 2009 Oct. 19-Nov. 22.

MPEC 2009 - W100


__________________


L

Posts: 131433
Date:
Permalink  
 

Orbital elements:
P/2009 U6 (LINEAR)
T 2009 Aug. 8.569 TT MPC
q 1.48324 (2000.0) P Q
n 0.159128 Peri. 308.502 +0.461760 -0.855725
a 3.37265 Node 112.471 +0.871985 +0.389700
e 0.56022 Incl. 14.635 +0.162540 +0.340394
P 6.19
From 95 observations 2009 Oct. 19-Nov. 17.

MPEC 2009 - W25


__________________


L

Posts: 131433
Date:
Permalink  
 

Orbital elements:
P/2009 U6 (LINEAR)
T 2009 Aug. 9.553 TT MPC
q 1.49278 (2000.0) P Q
n 0.151953 Peri. 309.322 +0.447335 -0.863334
a 3.47801 Node 112.607 +0.878527 +0.375238
e 0.57080 Incl. 14.655 +0.167574 +0.337419
P 6.49
From 63 observations 2009 Oct. 19-Nov. 12.

MPEC 2009 - V61


__________________


L

Posts: 131433
Date:
Permalink  
 

Orbital elements:
P/2009 U6 (LINEAR)
T 2009 Aug. 9.508 TT MPC
q 1.49215 (2000.0) P Q
n 0.152212 Peri. 309.276 +0.448160 -0.862910
a 3.47406 Node 112.599 +0.878159 +0.376065
e 0.57049 Incl. 14.653 +0.167301 +0.337581
P 6.48
From 41 observations 2009 Oct. 19-Nov. 6.

MPEC 2009 - V20


__________________


L

Posts: 131433
Date:
Permalink  
 

Orbital elements:
P/2009 U6 (LINEAR)
T 2009 Aug. 11.839 TT MPC
q 1.51357 (2000.0) P Q
n 0.134518 Peri. 311.110 +0.415323 -0.879215
a 3.77239 Node 112.915 +0.891969 +0.343225
e 0.59878 Incl. 14.680 +0.178598 +0.330421
P 7.33
From 29 observations 2009 Oct. 19-30.

MPEC 2009 - U137


__________________


L

Posts: 131433
Date:
Permalink  
 

This comet was very close to comet 29P/Schwassmann-Wachmann at the time of its discovery and may have been overlooked by many observers.

__________________


L

Posts: 131433
Date:
Permalink  
 

Orbital elements:
C/2009 U6 (LINEAR)
T 2009 Aug. 26.433 TT MPC
q 1.61891 (2000.0) P Q
Peri. 319.286 +0.252191 -0.941312
Node 115.014 +0.939612 +0.182774
e 1.0 Incl. 14.334 +0.231364 +0.283769
From 15 observations 2009 Oct. 27-29.

MPEC 2009 - U126


Comet C/2009 U6 (LINEAR) was discovered by the LINEAR telescope on the 27th October, 2009.
The preliminary orbital elements of the comet indicate a perihelion passage on the 26th August, 2009, at a distance of 1.61 AU from the Sun.

Ephemeris


__________________
Page 1 of 1  sorted by
Quick Reply

Please log in to post quick replies.



Create your own FREE Forum
Report Abuse
Powered by ActiveBoard